User: anonymous   Login
Location: UBC Liquid-Mirror Observatory
(49.2876°N, 122.5728°W)
Time: 23:15:07
(UTC-07:00)
Language:

KITSAT 1 - Orbit

View from above orbital plane
View from above orbital plane
View from above satellite
View from above satellite

Ground track
Ground track

The orbit data is extracted from the following two-line orbital elements,

1 22077U 92052B   14303.68309131 -.00000002  00000-0  24037-3 0  7415
2 22077 066.0837 178.4571 0001594 177.0636 213.8905 12.86496580 43837
Epoch (UTC): 30 October 2014 16:23:39
Eccentricity: 0.0001594
inclination: 66.0837°
perigee height: 1314 km
apogee height: 1316 km
right ascension of ascending node: 178.4571°
argument of perigee: 177.0636°
revolutions per day: 12.86496580
mean anomaly at epoch: 213.8905°
orbit number at epoch: 4383

The dashed part of the orbit path shows where the satellite is in the earth's shadow,  

DLR